Погода в Сан-Франциско

США     37°45′33″N   122°26′49″W
темп.,
°C
ветер,
м/с
пор.,
м/с
влажн.,
%
обл.,
%
осадки,
мм/ч
давл.,
гПа
погр.,
м
17 сентября, пт
пт1723:00+12зюз568575 0.0 1012400
02:00+12юз568672 0.0 1013379
05:00+12ююз348532 0.0 1012240
08:00+12ю23832 0.0 1013129
11:00+15юз33728 0.0 1014250
14:00+15юз567122 0.0 1014281
17:00+15юз797324 0.0 1014322
20:00+13юз68840 0.0 1014247
18 сентября, сб
сб1823:00+13юз56840 0.0 1016196
02:00+12юз568532 0.0 1016195
05:00+13юз4588100 0.0 1016203
08:00+13ююз3490100 0.1 1017126
11:00+14юз3590100 0.2 1018216
14:00+15зюз5688100 0.1 1018265
17:00+15зюз468753 0.1 1017288
20:00+14юз359259 0.0 1017143
19 сентября, вс
вс1923:00+14ююз359290 0.0 1017138
02:00+15ю4690100 0.1 1017185
05:00+14юз4597100 1.5 1017160
08:00+14зюз229559 0.0 101871
11:00+15з458089 0.1 1019158
14:00+15з697718 0.0 1018209
17:00+14зсз7108115 0.1 1017238
20:00+13зюз34811 0.0 1017149
20 сентября, пн
пн2023:00+14ю12801 0.0 101661
02:00+14ююв11785 0.0 101519
05:00+13юз11795 0.0 101511
08:00+14в11750 0.0 101514
11:00+17св23560 0.0 1015154
14:00+19з33510 0.0 1014143
17:00+17з45630 0.0 1013116
20:00+16з23660 0.0 101358
21 сентября, вт
вт2123:00+15зюз22710 0.0 101444
02:00+14зюз22730 0.0 101428
05:00+15св22670 0.0 101411
08:00+16св22560 0.0 101612
11:00+20св22410 0.0 101792
14:00+22з323957 0.0 1016194
17:00+18зюз455594 0.0 1016137
20:00+16зюз336464 0.0 101766